www.pogodaiklimat.ru

Погода и климат >> Архив погоды >> Канада >> Resolute Airport


ПОГОДА в Resolute Airport

  • Прогноз погоды в Resolute Airport
  • Монитор погоды в Resolute Airport
  • Климат города

АРХИВ ПОГОДЫ в Resolute Airport

Время (UTC), дата Ветер
(напр.,м/с)
 
Видим.   Явления Облачность Т
(С)
Тd
(С)
f
(%)
Тe
(С)
Тes
(С)
Комфортность P
(гПа)
Po
(гПа)
Тmin
(С)
Tmax
(С)
R
(мм)
R24
(мм)
S
(см)
18 10.12 13 1000 м метель н/о -13.9 -15.7 86 -27 -27 995.2 986.2 -17.7 -13.8 0.0 22
21 10.12 ЮВ 15 800 м 1/1 600 м
[]
-13.8 -15.6 86 -27 -27 992.6 983.7
00 11.12 ЮВ 14 800 м метель 1/1 600 м
[Sc]
-14.2 -16.0 86 -28 -28 989.9 981.0 -17.6 -13.7 2 24
03 11.12 ЮВ 14 600 м н/о -14.3 -16.1 86 -28 -28 985.6 976.7
06 11.12 ЮВ 12 600 м слабый снег {метель} н/о -13.5 -15.3 86 -26 -26 982.3 973.5 -17.6 -13.5 8 2
09 11.12 ЮВ 7 1000 м н/о -12.3 -13.9 88 -22 -22 981.3 972.5
12 11.12 ЮВ 7 9000 м слабый снег 10/10 100 м
[Sc]
-11.9 -13.5 88 -21 -21 981.1 972.3 -14.4 -13.5 2
15 11.12 В 5 16 км 10/10 600 м
[]
-11.9 -13.4 89 -20 -20 981.3 972.5
18 11.12 В 3 16 км слабый снег 10/10 600 м
[Sc]
-11.2 -12.8 88 -17 -17 981.3 972.5 -14.4 -11.1 0.2 26
21 11.12 В 4 14 км 10/10 600 м
[]
-11.7 -13.3 88 -19 -19 981.5 972.7
00 12.12 С 2 12 км слабый снег 10/10 300 м
[]
-15.7 -17.7 85 -20 -20 981.9 973.1 -17.0 -11.1 0.2 26
15 12.12 СЗ 4 24 км 10/10 600 м
[]
-32.7 -36.2 71 -44 -44 опасность
обморожения
990.1 980.9
18 12.12 З 2 24 км ледяные иглы {снег} 5/5 600 м
[Sc As op]
-34.2 -37.9 69 -41 -41 опасность
обморожения
991.2 982.0 0.2 27
21 12.12 ЮЗ 3 24 км 4/4 1000 м
[]
-32.4 -35.9 71 -43 -43 опасность
обморожения
992.6 983.3
00 13.12 ЮЗ 1 24 км ледяные иглы {снег} ясно -31.2 -34.7 71 -36 -36 опасность
обморожения
994.8 985.5 0.0 27
03 13.12 С 1 24 км ясно -31.3 -34.8 71 -33 -33 опасность
обморожения
996.7 987.3
06 13.12 СЗ 2 24 км ледяные иглы {снег} ясно -32.7 -36.3 70 -41 -41 опасность
обморожения
998.6 989.2 0.0 91
09 13.12 СЗ 4 24 км ясно -31.3 -34.7 72 -42 -42 опасность
обморожения
1001.1 991.7
12 13.12 С 3 24 км слабый снег 10/10 600 м
[Sc]
-33.0 -36.7 69 -42 -42 опасность
обморожения
1002.9 993.5 -34.9 0.0
15 13.12 СЗ 2 24 км ясно -30.7 -34.2 71 -37 -37 опасность
обморожения
1004.4 995.0
18 13.12 З 2 24 км ледяные иглы {снег} ясно -31.4 -34.9 71 -38 -38 опасность
обморожения
1006.1 996.7 -34.9 -29.3 0.0 27
21 13.12 СЗ 5 24 км ясно -31.6 -35.0 72 -45 -45 опасность
обморожения
1007.9 998.5
00 14.12 С 5 24 км ледяные иглы {снег} ясно -30.1 -33.4 73 -43 -43 опасность
обморожения
1009.0 999.5 -34.5 -29.3 0.0 27
03 14.12 С 5 24 км ясно -28.8 -32.1 73 -41 -41 опасность
обморожения
1009.6 1000.2
06 14.12 СВ 8 24 км ледяные иглы {снег} ясно -28.3 -31.5 74 -43 -43 опасность
обморожения
1009.6 1000.2 -34.5 -26.5 0.0 61
09 14.12 ЮВ 3 24 км ясно -29.9 -33.2 73 -39 -39 опасность
обморожения
1010.8 1001.3
12 14.12 С 1 8000 м ледяные иглы {снег} ясно -28.9 -32.1 74 -33 -33 опасность
обморожения
1011.0 1001.6 -32.1 -26.5 0.0
15 14.12 З 1 4800 м ясно -29.6 -33.0 72 -34 -34 опасность
обморожения
1010.8 1001.4
18 14.12 СЗ 4 4800 м ясно -27.0 -30.2 74 -37 -37 опасность
обморожения
1010.5 1001.1 -34.0 -25.0 0.2 27
21 14.12 СВ 13 1600 м ясно -25.5 -28.5 76 -42 -42 опасность
обморожения
1010.0 1000.6
00 15.12 СВ 5 2400 м ледяные иглы {снег} ясно -25.2 -28.2 76 -36 -36 опасность
обморожения
1011.2 1001.8 -32.1 -23.7 0.0 27
03 15.12 В 2 16 км ясно -27.2 -30.4 74 -33 -33 опасность
обморожения
1011.2 1001.8
06 15.12 Ю 2 16 км ледяные иглы {снег} ясно -27.7 -30.9 74 -34 -34 опасность
обморожения
1010.6 1001.2 -32.1 -23.7 0.0 232
09 15.12 СЗ 2 16 км ясно -27.4 -30.6 74 -35 -35 опасность
обморожения
1011.0 1001.7
12 15.12 СВ 13 16 км ледяные иглы {снег} ясно -26.6 -29.6 76 -44 -44 опасность
обморожения
1010.6 1001.3 -29.8 -23.7 0.0
15 15.12 СВ 12 4800 м 3/3 600 м
[]
-27.5 -30.7 74 -45 -45 опасность
обморожения
1010.6 1001.2
18 15.12 СВ 14 4800 м метель 6/6 600 м
[Sc]
-27.7 -30.9 74 -46 -46 опасность
обморожения
1010.4 1001.0 -29.8 -23.8 0.0 22
21 15.12 СВ 15 1600 м 4/4 600 м
[]
-28.7 -32.0 73 -48 -48 опасность
обморожения
1011.2 1001.8
18 16.12 СЗ 6 19 км ледяные иглы {снег, метель} 1/1 600 м
[Sc]
-28.5 -31.7 74 -41 -41 опасность
обморожения
1016.9 1007.4 1 23
21 16.12 СЗ 3 19 км 1/1 600 м
[]
-26.9 -30.0 75 -36 -36 опасность
обморожения
1017.8 1008.3
00 17.12 СЗ 4 19 км ледяные иглы {снег, метель} ясно -28.6 -31.9 73 -40 -40 опасность
обморожения
1018.6 1009.1 22
03 17.12 СЗ 5 24 км ясно -30.0 -33.4 72 -43 -43 опасность
обморожения
1018.4 1008.9
06 17.12 З 4 24 км ледяные иглы {снег} ясно -34.0 -37.8 68 -46 -46 опасность
обморожения
1018.6 1009.1 0.0 122
09 17.12 СЗ 2 24 км ясно -34.0 -37.7 69 -41 -41 опасность
обморожения
1019.0 1009.5
12 17.12 З 3 24 км ледяные иглы {снег} ясно -33.6 -37.3 69 -44 -44 опасность
обморожения
1018.9 1009.4 -34.8 0.0
15 17.12 З 4 19 км ясно -32.8 -36.5 69 -44 -44 опасность
обморожения
1018.1 1008.6

 

Местоположение метеостанции Resolute Airport (Канада): широта 74.72 долгота -94.98 высота над уровнем моря 67 м.

В архиве по умолчанию представлена погода в Resolute Airport за последнюю неделю. Архивные данные за месяц целиком и за предыдущие месяцы, начиная с января 2011 года, Вы можете получить, выбрав интересующий диапазон дат из раскрывающегося списка и нажав кнопку "Ввод!".


*Определитесь, кто Вы:
робот инопланетянин человек

Внимание! Время в таблицах - всемирное. Для получения местного времени необходимо прибавить поправку, которая в Resolute Airport равна -6 ч.

Смотрите также архив погоды в соседних городах и на ближайших метеорологических станциях:

Погода в Resolute Cs (Канада) (1 км)
Погода в Stefansson Island (Канада) (326 км)
Погода в Arctic Bay (Канада) (362 км)
Погода в Isachsen (aut) (Канада) (500 км)
Погода в Pond Inlet Airport (Канада) (574 км)
Погода в Pond Inlet Climate (Канада) (575 км)
Погода в Spence bay (Канада) (577 км)
Погода в Chris Hadfield (Канада) (599 км)
Погода в Eureka (Канада) (623 км)
Погода в Eureka Climate (Канада) (624 км)

Пояснения к столбцам:

Ветер - указаны скорость ветра в м/с - средняя за 10 мин, порывы в срок и между сроками (в фигурных скобках) и направление, откуда дует ветер: С - северный, СВ - северо-восточный, В - восточный, ЮВ - юго-восточный, Ю - южный, ЮЗ - юго-западный, З - западный, СЗ - северо-западный.
Видимость - горизонтальная дальность видимости в метрах или километрах. При видимости от 1 до 10 км при отсутствии осадков обычно наблюдается дымка, при ухудшении видимости до 1 км и менее - туман. В сухую погоду видимость может ухудшаться дымом, пылью или мглою.
Явления - указаны атмосферные явления, наблюдавшиеся в срок или в последний час перед сроком; фигурными скобками обозначены явления, наблюдавшиеся между сроками (за 1-3 часа до срока); квадратными скобками обозначены град или гололедные отложения с указанием их диаметра в мм.
Облачность - указаны через наклонную черту общая и нижняя облачность в баллах и высота нижней границы облаков в метрах; квадратными скобками обозначены формы облаков: Ci - перистые, Cs - перисто-слоистые, Cc - перисто-кучевые, Ac - высококучевые, As - высокослоистые, Sc - слоисто-кучевые, Ns - слоисто-дождевые, Cu - кучевые, Cb - кучево-дождевые. Подробнее классификацию облаков см. в Атласе облаков (PDF).
T - Температура воздуха - температура, измеренная на высоте 2 м над землей.
Td - Температура точки росы - температура, при понижении до которой содержащийся в воздухе водяной пар достигнет насыщения.
f - Относительная влажность воздуха - влажноcть воздуха, измеренная на высоте 2 м над землей.
Te - Эффективная температура - температура, которую ощущает одетый по сезону человек в тени. Характеристика душности погоды. При расчете учитывается влияние влажности воздуха и скорости ветра на теплоощущения человека.
Tes - Эффективная температура на солнце - температура, которую ощущает человек, с поправкой на солнечный нагрев. Характеристика знойности погоды. Зависит от высоты солнца над горизонтом, облачности и скорости ветра. Ночью, в пасмурную погоду, а также при ветре 12 м/с и более поправка равна нулю.
P - Атмосферное давление - приведенное к уровню моря атмосферное давление.
Po - Атмосферное давление - измеренное на уровне метеостанции атмосферное давление.
Tmin - Минимальная температура - минимум температуры воздуха на высоте 2 м над землей.
Tmax - Максимальная температура - максимум температуры воздуха на высоте 2 м над землей.
R - Количество осадков - Количество выпавших осадков за период времени, мм. При наведении курсора мыши на число - период времени, за который выпало указанное количество осадков.
R24 - Количество осадков - Количество выпавших осадков за 24 часа, мм.
S - Снежный покров - Высота снежного покрова, см. При наведении курсора мыши на число - состояние снежного покрова и степень покрытия местности в баллах.